Charlottesville, VA

4:13 AM EDT on March 29, 2017 (GMT -0400)
Charlottesville-Albemarle

Weather History for KCHO - July, 2013

Change the Weather History Date:

Tuesday, July 9, 2013

  Actual Average Record
Temperature  
Mean Temperature 77 °F 76 °F  
Max Temperature 85 °F 87 °F 103 °F (1936)
Min Temperature 69 °F 65 °F 49 °F (1913)
Degree Days  
Heating Degree Days 0 0  
Month to date heating degree days 0 0  
Since 1 June heating degree days 2 11  
Since 1 July heating degree days 0 0  
Cooling Degree Days 12 11  
Month to date cooling degree days 114 94  
Year to date cooling degree days 507 399  
Since 1 June cooling degree days 360 313  
Growing Degree Days 27 (Base 50)    
Moisture  
Dew Point 70 °F    
Average Humidity 81    
Maximum Humidity 100    
Minimum Humidity 61    
Precipitation  
Precipitation 0.01 in 0.13 in 0.90 in (2002)
Month to date precipitation 2.01 1.16  
Year to date precipitation 25.70 21.36  
Sea Level Pressure  
Sea Level Pressure 30.08 in    
Wind  
Wind Speed 3 mph (SW)    
Max Wind Speed 9 mph    
Max Gust Speed 29 mph    
Visibility 9 miles    
Events Rain    
T = Trace of Precipitation, MM = Missing Value Source: NWS Daily Summary

Daily Weather History Graph

Daily Weather History Graph

Search for Another Location

Airport or City:

Trip Planner

Search our weather history database for the weather conditions in past years. The results will help you decide how hot, cold, wet, or windy it might be!

Date:

Astronomy

Jul. 09, 2013 Rise Set
Actual Time 5:59 AM EDT 8:38 PM EDT
Civil Twilight 5:27 AM EDT 9:09 PM EDT
Nautical Twilight 4:49 AM EDT 9:48 PM EDT
Astronomical Twilight 4:05 AM EDT 10:31 PM EDT
Moon 7:19 AM EDT (7/9) 9:17 PM EDT (7/9)
Length of Visible Light 15h 41m
Length of Day
14h 39m
New Moon, 2% of the Moon is Illuminated
Jul 9
New Moon
Jul 15
First Quarter
Jul 22
Full
Jul 29
Last Quarter
Aug 6
New

Hourly Weather History & Observations

Time (EDT) Temp. Heat Index Dew Point Humidity Pressure Visibility Wind Dir Wind Speed Gust Speed Precip Events Conditions
12:11 AM 71.6 °F - 69.8 °F 94% 30.12 in 2.5 mi Calm Calm - N/A   Clear
12:18 AM 71.6 °F - 69.8 °F 94% 30.12 in 5.0 mi Calm Calm - N/A   Clear
12:53 AM 71.1 °F - 70.0 °F 96% 30.11 in 8.0 mi Calm Calm - N/A   Clear
1:53 AM 71.1 °F - 70.0 °F 96% 30.09 in 6.0 mi Calm Calm - N/A   Clear
2:44 AM 71.6 °F - 69.8 °F 94% 30.10 in 6.0 mi SSW 5.8 mph - N/A   Partly Cloudy
2:53 AM 72.0 °F - 69.1 °F 91% 30.08 in 9.0 mi SW 3.5 mph - N/A   Clear
3:53 AM 72.0 °F - 69.1 °F 91% 30.09 in 10.0 mi SW 3.5 mph - N/A   Clear
4:53 AM 71.1 °F - 69.1 °F 93% 30.09 in 9.0 mi SW 3.5 mph - N/A   Clear
5:53 AM 70.0 °F - 69.1 °F 97% 30.10 in 6.0 mi Calm Calm - N/A   Clear
6:53 AM 71.1 °F - 69.1 °F 93% 30.10 in 7.0 mi Calm Calm - N/A   Clear
7:53 AM 72.0 °F - 68.0 °F 87% 30.11 in 10.0 mi Calm Calm - N/A   Clear
8:53 AM 73.9 °F - 69.1 °F 85% 30.11 in 10.0 mi Calm Calm - N/A   Scattered Clouds
9:53 AM 79.0 °F - 69.1 °F 72% 30.12 in 10.0 mi Calm Calm - N/A   Clear
10:53 AM 81.0 °F 84.4 °F 70.0 °F 69% 30.11 in 10.0 mi Calm Calm - N/A   Mostly Cloudy
11:53 AM 82.0 °F 85.5 °F 69.1 °F 65% 30.11 in 10.0 mi SSW 5.8 mph - N/A   Mostly Cloudy
12:53 PM 82.9 °F 86.5 °F 69.1 °F 63% 30.11 in 10.0 mi Calm Calm - N/A   Mostly Cloudy
1:53 PM 82.9 °F 86.5 °F 69.1 °F 63% 30.10 in 10.0 mi Variable 3.5 mph - N/A   Mostly Cloudy
2:53 PM 82.0 °F 85.9 °F 70.0 °F 67% 30.08 in 10.0 mi SW 5.8 mph - N/A   Mostly Cloudy
3:53 PM 82.0 °F 86.3 °F 71.1 °F 69% 30.06 in 10.0 mi Variable 3.5 mph - N/A   Partly Cloudy
4:53 PM 82.9 °F 87.5 °F 71.1 °F 67% 30.04 in 10.0 mi South 5.8 mph - N/A   Partly Cloudy
5:53 PM 84.0 °F 88.4 °F 70.0 °F 63% 30.03 in 10.0 mi SSW 8.1 mph - N/A   Scattered Clouds
6:53 PM 82.9 °F 88.0 °F 72.0 °F 69% 30.02 in 10.0 mi SSW 6.9 mph - N/A   Clear
7:53 PM 81.0 °F 84.4 °F 70.0 °F 69% 30.03 in 10.0 mi SW 9.2 mph - N/A   Overcast
8:53 PM 78.1 °F - 70.0 °F 76% 30.04 in 10.0 mi South 5.8 mph - N/A   Scattered Clouds
9:53 PM 78.1 °F - 71.1 °F 79% 30.05 in 10.0 mi SW 3.5 mph - 0.01 in Rain Light Rain
10:53 PM 78.1 °F - 73.0 °F 84% 30.06 in 10.0 mi SW 3.5 mph - N/A   Mostly Cloudy
11:53 PM 77.0 °F - 73.9 °F 90% 30.04 in 10.0 mi SSW 4.6 mph - N/A   Mostly Cloudy